Flag for Russia Weather past 2 weeks in Yakutsk, Russia

Now
57 °F

Passing clouds.


Feels Like: 57 °F
Forecast: 49 / 68 °F
Wind: 3 mph from Northwest

Location: Jakutsk

Current Time: Aug 1, 2015 at 11:49:56 PM

Latest Report: Aug 1, 2015 at 11:30 PM


Visibility: N/A

Pressure: 29.62 "Hg

Humidity: 72%

Dew point: 48 °F

Location of YakutskLocation

Historic Weather in Yakutsk — Graph

°F

Yakutsk temperature yesterday

Maximum temperature yesterday: 77 °F (at 3:00 PM)
Minimum temperature yesterday: 55 °F (at 2:00 AM)
Average temperature yesterday: 65 °F

Past Weeks' High & Low Weather Summary

 TemperatureHumidityPressure
High91 °F (Jul 18, 1:30 PM)94% (Jul 21, 9:30 AM)29.89 "Hg (Jul 21, 9:30 AM)
Low45 °F (Jul 26, 3:30 AM)23% (Jul 18, 5:00 PM)29.42 "Hg (Jul 22, 4:30 PM)
Average65 °F63%29.67 "Hg
* Reported Jul 17 10:00 PM — Aug 1 10:30 PM, Yakutsk, Weather by CustomWeather, © 2015

Note: Actual official high and low records may vary slightly from our data, if they occured in-between our weather recording intervals... More about our weather records

Advertising

Yakutsk weather history for previous 24 hours

 ConditionsComfort  
Time TempWeatherWind HumidityBarometerVisibility
10:30 PM
Sat, Aug 1
61 °FPassing clouds.1 mph68%29.62 "HgN/A
10:00 PM59 °FPassing clouds.3 mph77%29.62 "HgN/A
9:30 PM63 °FPassing clouds.1 mph73%29.62 "HgN/A
9:00 PM63 °FPassing clouds.No wind68%29.62 "HgN/A
8:30 PM66 °FPassing clouds.1 mph56%29.62 "HgN/A
8:00 PM66 °FPassing clouds.1 mph52%29.65 "HgN/A
7:30 PM72 °FSunny.1 mph38%29.65 "Hg10 mi
7:00 PM72 °FSunny.1 mph36%29.65 "Hg10 mi
6:30 PM73 °FSunny.3 mph33%29.65 "Hg10 mi
6:00 PM72 °FSunny.1 mph38%29.65 "Hg10 mi
5:30 PM73 °FSunny.1 mph38%29.65 "Hg10 mi
5:00 PM72 °FSunny.3 mph38%29.65 "Hg10 mi
4:30 PM73 °FSunny.3 mph31%29.65 "Hg10 mi
4:00 PM73 °FSunny.3 mph31%29.65 "Hg10 mi
3:30 PM72 °FSunny.3 mph38%29.65 "Hg10 mi
3:00 PM72 °FPassing clouds.3 mph41%29.65 "HgN/A
2:30 PM72 °FSunny.1 mph36%29.65 "Hg10 mi
2:00 PM70 °FSunny.1 mph38%29.65 "Hg10 mi
1:30 PM72 °FSunny.1 mph38%29.65 "Hg10 mi
1:00 PM72 °FSunny.1 mph41%29.68 "Hg10 mi
12:30 PM72 °FPassing clouds.3 mph47%29.68 "HgN/A
12:00 PM70 °FSunny.3 mph50%29.68 "Hg10 mi
11:30 AM70 °FPassing clouds.3 mph43%29.68 "HgN/A
11:00 AM68 °FSunny.3 mph56%29.68 "Hg10 mi
10:30 AM66 °FPassing clouds.3 mph60%29.68 "HgN/A
10:00 AM66 °FPassing clouds.3 mph60%29.68 "HgN/A
9:30 AM66 °FSunny.1 mph56%29.71 "Hg10 mi
9:00 AM63 °FPassing clouds.3 mph59%29.71 "HgN/A
8:30 AM63 °FSunny.3 mph64%29.71 "Hg10 mi
8:00 AM61 °FPassing clouds.3 mph68%29.71 "HgN/A
7:30 AM59 °FSunny.1 mph72%29.71 "Hg10 mi
7:00 AM57 °FSunny.3 mph77%29.71 "Hg10 mi
6:30 AM54 °FSunny.3 mph82%29.71 "Hg10 mi
6:00 AM52 °FSunny.6 mph88%29.71 "Hg10 mi
5:30 AM50 °FSunny.3 mph88%29.71 "Hg10 mi
5:00 AM50 °FSunny.6 mph88%29.68 "Hg10 mi
4:30 AM48 °FSunny.6 mph94%29.68 "Hg10 mi
4:00 AM48 °FSunny.6 mph94%29.68 "Hg10 mi
3:30 AM48 °FClear.6 mph94%29.68 "Hg10 mi
3:00 AM50 °FClear.3 mph88%29.68 "Hg10 mi
2:30 AM50 °FClear.6 mph88%29.68 "Hg10 mi
2:00 AM50 °FClear.3 mph82%29.68 "Hg10 mi
1:30 AM50 °FClear.6 mph88%29.68 "Hg10 mi
1:00 AM52 °FClear.3 mph77%29.68 "Hg10 mi
12:30 AM54 °FClear.3 mph77%29.68 "Hg10 mi
12:00 AM55 °FClear.6 mph72%29.68 "Hg10 mi
11:30 PM
Fri, Jul 31
55 °FClear.3 mph72%29.68 "Hg10 mi
11:00 PM55 °FClear.3 mph72%29.68 "Hg10 mi
Weather by CustomWeather, © 2015

See weather overviewHow to use our weather pages